Location: Staunton
(38.1490°N, 79.0720°W)
Time: 01:25:23
(UTC-04:00)

ISS - Pass Details

Date: 23 May 2018
Orbit: 402 x 407 km, 51.6° (Epoch: 24 May)

Event Time Altitude Azimuth Distance (km) Brightness Sun altitude
Rises 22:17:00 0° 269° (W) 2,313 0.6 -18.1°
Reaches altitude 10° 22:19:32 10° 289° (WNW) 1,455 -0.1 -18.4°
Maximum altitude 22:21:52 18° 335° (NNW) 1,063 -0.8 -18.7°
Drops below altitude 10° 22:24:14 10° 21° (NNE) 1,457 -0.7 -19.0°
Sets 22:26:46 0° 41° (NE) 2,318 0.1 -19.3°
